EST,Max TemperatureF,Mean TemperatureF,Min TemperatureF,Max Dew PointF,MeanDew PointF,Min DewpointF,Max Humidity, Mean Humidity, Min Humidity, Max Sea Level PressureIn, Mean Sea Level PressureIn, Min Sea Level PressureIn, Max VisibilityMiles, Mean VisibilityMiles, Min VisibilityMiles, Max Wind SpeedMPH, Mean Wind SpeedMPH, Max Gust SpeedMPH,PrecipitationIn, CloudCover, Events, WindDirDegrees
2013-1-1,42,38,35,42,36,28,98,89,69,30.11,30.04,29.96,10,7,2,5,0,,0.47,7,Rain,240
2013-1-2,44,40,36,44,36,34,99,85,71,30.11,30.03,29.92,10,10,5,12,3,17,0.02,4,Rain,309
2013-1-3,43,32,21,36,30,19,97,79,53,30.30,30.16,30.08,10,10,10,12,3,16,0.00,3,,304
2013-1-4,45,31,17,25,16,7,93,59,21,30.35,30.30,30.23,10,10,10,13,2,23,0.00,0,,333
2013-1-5,49,33,17,34,21,14,91,66,28,30.38,30.29,30.21,10,10,10,5,0,,0.00,2,Rain,60
2013-1-6,51,44,36,38,33,26,97,75,49,30.23,30.15,30.06,10,9,4,14,3,28,0.01,4,Rain,317
2013-1-7,55,38,20,27,22,14,92,66,20,30.38,30.31,30.20,10,10,10,7,2,,0.00,0,,267
2013-1-8,56,36,18,39,27,16,96,81,49,30.43,30.36,30.30,10,10,7,7,1,,0.00,2,,151
2013-1-9,52,46,39,49,43,37,99,91,81,30.47,30.42,30.37,10,8,0,4,0,,0.00,6,Fog-Rain,335
2013-1-10,64,52,41,53,45,40,97,82,51,30.49,30.41,30.30,10,6,0,7,1,,0.01,8,Fog-Rain,145
2013-1-11,60,56,53,59,56,51,100,96,84,30.28,30.19,30.14,10,7,1,8,2,,0.18,8,Rain,147
2013-1-12,69,60,51,63,54,50,100,88,55,30.20,30.14,30.10,10,7,0,8,1,,0.06,5,Fog-Rain,108
2013-1-13,65,60,56,59,54,50,97,74,60,30.14,30.08,30.05,10,10,5,12,4,18,0.24,7,Rain,141
2013-1-14,59,53,47,60,55,47,100,100,97,30.17,30.10,30.04,10,7,2,9,2,,1.49,8,Rain,278
2013-1-15,56,52,47,57,52,47,100,99,97,30.14,30.05,29.97,10,6,2,8,1,,2.06,8,Rain,110
2013-1-16,59,54,50,58,53,50,100,97,72,30.02,29.97,29.92,10,8,4,9,1,,0.40,8,Rain,12
2013-1-17,50,43,36,50,45,26,100,94,65,30.18,29.90,29.68,10,7,2,15,2,24,1.69,7,Rain,313
2013-1-18,51,38,25,31,23,12,97,66,21,30.46,30.38,30.23,10,10,10,10,4,16,0.01,0,,303
2013-1-19,55,38,22,31,25,16,97,77,22,30.44,30.31,30.19,10,9,0,6,1,,0.00,1,Fog,71
2013-1-20,57,39,21,32,24,18,96,70,24,30.20,30.14,30.06,10,10,10,13,1,17,0.00,0,,332
2013-1-21,50,36,21,30,19,9,95,61,26,30.12,30.08,30.01,10,10,10,16,3,25,0.00,0,,351
2013-1-22,37,30,23,8,0,-14,43,30,12,30.23,30.16,30.08,10,10,10,13,8,23,0.00,1,,342
2013-1-23,48,36,23,24,16,3,87,50,32,30.28,30.19,30.10,10,10,10,9,4,,0.00,3,,326
2013-1-24,43,32,20,31,14,-3,88,47,16,30.34,30.19,30.05,10,10,10,18,6,30,0.00,1,,307
2013-1-25,32,28,23,31,19,2,96,71,33,30.36,30.21,30.08,10,7,2,6,2,,0.19,7,Rain-Snow,135
2013-1-26,53,38,24,39,25,12,98,78,20,30.31,30.18,30.10,10,6,0,12,1,,0.00,3,Fog,343
2013-1-27,51,34,19,30,26,17,95,70,43,30.45,30.38,30.31,10,10,10,7,1,,0.00,4,,127
2013-1-28,63,49,36,47,36,28,97,70,52,30.40,30.33,30.25,10,9,2,9,1,,0.00,7,,100
2013-1-29,61,50,39,58,47,38,100,88,70,30.29,30.17,30.00,10,5,0,9,1,20,0.20,7,Fog-Rain,127
2013-1-30,62,52,41,60,53,34,100,92,70,29.99,29.72,29.54,10,7,1,22,7,40,2.48,8,Rain,139
2013-1-31,41,35,29,32,21,14,84,59,34,30.04,29.92,29.66,10,10,2,17,7,31,0.01,4,Rain-Snow,315